DD3UTS-13 Weather Reports


Display with metric or nautical units.
time (UTC)temp
F
wind
direction
speed
MPH
gust
MPH
rain 1hr
in
rain 24hr
in
rain mn
in
humidity
%
barometer
mb
20260505014532 57 280 0.0 0.0 0.00 0.00 0.00 71 1009.9
20260505014031 57 280 0.0 0.0 0.00 0.00 0.00 71 1010.0
20260505013531 57 280 0.0 0.0 0.00 0.00 0.00 71 1010.0
20260505013031 57 280 2.0 0.0 0.00 0.00 0.00 71 1010.0
20260505012531 57 277 3.0 0.0 0.00 0.00 0.00 70 1010.1
20260505012031 57 230 3.0 0.0 0.00 0.00 0.00 70 1010.1
20260505011532 57 152 0.0 0.0 0.00 0.00 0.00 70 1010.2
20260505011031 57 180 4.0 0.0 0.00 0.00 0.00 70 1010.2
20260505010532 58 180 4.0 0.0 0.00 0.00 0.00 70 1010.3
20260505010031 58 220 0.0 0.0 0.00 0.00 0.00 69 1010.3
20260505005532 58 275 0.0 0.0 0.00 0.00 0.00 68 1010.3
20260505005032 58 275 0.0 0.0 0.00 0.00 0.00 68 1010.3
20260505004531 58 275 0.0 0.0 0.00 0.00 0.00 68 1010.4
20260505004032 58 275 0.0 0.0 0.00 0.00 0.00 68 1010.4
20260505003532 58 275 0.0 0.0 0.00 0.00 0.00 68 1010.5
20260505003032 58 260 0.0 0.0 0.00 0.00 0.00 68 1010.6
20260505002531 58 260 0.0 0.0 0.00 0.00 0.00 68 1010.7
20260505002032 59 260 0.0 0.0 0.00 0.00 0.00 67 1010.7
20260505001531 59 260 0.0 0.0 0.00 0.00 0.00 67 1010.7
20260505001031 59 260 0.0 0.0 0.00 0.00 0.00 67 1010.8
20260505000531 59 260 0.0 0.0 0.00 0.00 0.00 67 1010.8
20260505000031 59 260 0.0 0.0 0.00 0.00 0.00 67 1010.8
20260504235531 59 260 0.0 0.0 0.00 0.00 0.00 67 1010.9
20260504235032 59 260 0.0 0.0 0.00 0.00 0.00 66 1010.9
20260504234532 59 260 0.0 0.0 0.00 0.00 0.00 66 1010.9
20260504234031 59 260 0.0 0.0 0.00 0.00 0.00 66 1010.9
20260504233532 59 260 0.0 0.0 0.00 0.00 0.00 66 1010.9
20260504233032 59 260 0.0 0.0 0.00 0.00 0.00 66 1010.9
20260504232532 59 260 0.0 0.0 0.00 0.00 0.00 66 1011.0
20260504232032 59 260 0.0 0.0 0.00 0.00 0.00 66 1011.0
20260504231532 59 260 0.0 0.0 0.00 0.00 0.00 67 1011.0
20260504231031 59 260 0.0 0.0 0.00 0.00 0.00 67 1011.0
20260504230531 58 260 0.0 0.0 0.00 0.00 0.00 67 1011.0
20260504230031 58 260 0.0 0.0 0.00 0.00 0.00 67 1010.9
20260504225531 58 260 0.0 0.0 0.00 0.00 0.00 68 1010.9
20260504225031 58 260 0.0 0.0 0.00 0.00 0.00 68 1011.0
20260504224531 58 260 0.0 0.0 0.00 0.00 0.00 67 1011.0
20260504224031 59 282 3.0 0.0 0.00 0.00 0.00 67 1011.1
20260504223532 59 275 5.0 0.0 0.00 0.00 0.00 67 1011.1
20260504223032 59 95 3.0 0.0 0.00 0.00 0.00 66 1011.1
20260504222532 60 105 0.0 0.0 0.00 0.00 0.00 65 1011.0
20260504222031 62 120 3.0 0.0 0.00 0.00 0.00 62 1011.0
20260504221531 62 115 3.0 0.0 0.00 0.00 0.00 61 1011.0
20260504221031 62 112 3.0 0.0 0.00 0.00 0.00 61 1010.9
20260504220532 62 110 4.0 0.0 0.00 0.00 0.00 61 1010.8
20260504220031 62 110 4.0 0.0 0.00 0.00 0.00 61 1010.7
20260504215531 61 107 4.0 0.0 0.00 0.00 0.00 62 1010.8
20260504215031 61 90 4.0 0.0 0.00 0.00 0.00 63 1011.0
20260504214532 61 105 4.0 0.0 0.00 0.00 0.00 63 1011.0
20260504214031 60 107 4.0 0.0 0.00 0.00 0.00 64 1011.1
20260504213531 60 107 0.0 0.0 0.00 0.00 0.00 64 1011.2
20260504213032 60 107 0.0 0.0 0.00 0.00 0.00 64 1011.3
20260504212532 60 110 0.0 0.0 0.00 0.00 0.00 64 1011.4
20260504212031 60 130 0.0 0.0 0.00 0.00 0.00 64 1011.5
20260504211532 60 130 0.0 0.0 0.00 0.00 0.00 65 1011.6
20260504211031 60 130 0.0 0.0 0.00 0.00 0.00 64 1011.7
20260504210532 60 110 0.0 0.0 0.00 0.00 0.00 64 1011.6
20260504210031 61 105 0.0 0.0 0.00 0.00 0.00 62 1011.7
20260504205532 61 100 0.0 0.0 0.00 0.00 0.00 61 1011.8
20260504205031 61 100 0.0 0.0 0.00 0.00 0.00 61 1011.7
20260504204531 61 100 0.0 0.0 0.00 0.00 0.00 61 1011.8
20260504204032 61 100 0.0 0.0 0.00 0.00 0.00 60 1011.7
20260504203532 61 100 0.0 0.0 0.00 0.00 0.00 60 1011.8
20260504203032 61 100 0.0 0.0 0.00 0.00 0.00 60 1011.8
20260504202532 61 77 0.0 0.0 0.00 0.00 0.00 61 1011.8
20260504202031 62 305 0.0 0.0 0.00 0.00 0.00 60 1011.8
20260504201532 62 305 0.0 0.0 0.00 0.00 0.00 59 1011.8
20260504201031 62 305 0.0 0.0 0.00 0.00 0.00 58 1011.8
20260504200532 62 305 0.0 0.0 0.00 0.00 0.00 58 1011.8
20260504200032 62 305 0.0 0.0 0.00 0.00 0.00 58 1011.8
20260504195532 62 305 0.0 0.0 0.00 0.00 0.00 58 1011.8
20260504195032 62 305 0.0 0.0 0.00 0.00 0.00 58 1011.7
20260504194532 62 305 0.0 0.0 0.00 0.00 0.00 57 1011.7
20260504194032 63 305 0.0 0.0 0.00 0.00 0.00 57 1011.7
20260504193531 63 305 0.0 0.0 0.00 0.00 0.00 57 1011.7
20260504193032 63 305 0.0 0.0 0.00 0.00 0.00 57 1011.7
20260504192532 63 305 0.0 0.0 0.00 0.00 0.00 57 1011.7
20260504192032 63 305 0.0 0.0 0.00 0.00 0.00 56 1011.7
20260504191532 63 305 0.0 0.0 0.00 0.00 0.00 56 1011.6
20260504191031 63 305 0.0 0.0 0.00 0.00 0.00 56 1011.6
20260504190532 64 305 0.0 0.0 0.00 0.00 0.00 55 1011.6
20260504190032 64 305 0.0 0.0 0.00 0.00 0.00 55 1011.7
20260504185532 64 305 0.0 0.0 0.00 0.00 0.00 55 1011.7
20260504185031 64 305 0.0 0.0 0.00 0.00 0.00 54 1011.6
20260504184531 64 305 0.0 0.0 0.00 0.00 0.00 54 1011.6
20260504184032 64 305 0.0 0.0 0.00 0.00 0.00 53 1011.6
20260504183532 65 305 0.0 0.0 0.00 0.00 0.00 53 1011.6
20260504183032 65 305 0.0 0.0 0.00 0.00 0.00 53 1011.6
20260504182532 65 305 0.0 0.0 0.00 0.00 0.00 52 1011.5
20260504182032 65 302 0.0 0.0 0.00 0.00 0.00 52 1011.5
20260504181531 66 302 0.0 0.0 0.00 0.00 0.00 51 1011.5
20260504181032 66 305 0.0 0.0 0.00 0.00 0.00 51 1011.6
20260504180531 67 302 0.0 0.0 0.00 0.00 0.00 51 1011.6
20260504180036 67 302 0.0 0.0 0.00 0.00 0.00 50 1011.6
20260504175531 68 302 0.0 0.0 0.00 0.00 0.00 49 1011.5
20260504175031 69 302 0.0 0.0 0.00 0.00 0.00 48 1011.5
20260504174531 69 300 0.0 0.0 0.00 0.00 0.00 48 1011.5
20260504174031 70 32 0.0 0.0 0.00 0.00 0.00 47 1011.5
20260504173532 70 317 0.0 0.0 0.00 0.00 0.00 47 1011.5
20260504173032 71 320 0.0 0.0 0.00 0.00 0.00 46 1011.6
20260504172531 71 345 0.0 0.0 0.00 0.00 0.00 46 1011.6
20260504172031 71 3 4.0 0.0 0.00 0.00 0.00 46 1011.6
20260504171531 71 355 2.0 0.0 0.00 0.00 0.00 47 1011.7
20260504171031 71 345 3.0 0.0 0.00 0.00 0.00 46 1011.7
20260504170532 71 350 4.0 0.0 0.00 0.00 0.00 47 1011.8
20260504151037 73 320 5.0 0.0 0.00 0.00 0.00 44 1012.1
20260504150532 73 335 5.0 0.0 0.00 0.00 0.00 45 1012.1
20260504141031 74 300 7.0 0.0 0.00 0.00 0.00 45 1012.2
20260504140532 75 315 5.0 0.0 0.00 0.00 0.00 43 1012.2
20260504130532 74 357 5.0 0.0 0.00 0.00 0.00 44 1012.6
20260504110531 74 222 7.0 0.0 0.00 0.00 0.00 38 1012.8
20260504100531 73 180 12.0 0.0 0.00 0.00 0.00 38 1013.2
20260504081532 67 245 4.0 0.0 0.00 0.00 0.00 46 1013.6
20260504081032 67 260 0.0 0.0 0.00 0.00 0.00 47 1013.5
20260504080532 67 260 4.0 0.0 0.00 0.00 0.00 47 1013.5
20260504050532 58 177 4.0 0.0 0.00 0.00 0.00 59 1012.7
20260504045531 58 182 4.0 0.0 0.00 0.00 0.00 58 1012.6
20260504045031 58 215 5.0 0.0 0.00 0.00 0.00 57 1012.7
20260504044532 58 247 4.0 0.0 0.00 0.00 0.00 57 1012.6
20260504044032 58 255 4.0 0.0 0.00 0.00 0.00 56 1012.6
20260504043532 58 85 0.0 0.0 0.00 0.00 0.00 56 1012.2
20260504043032 58 255 0.0 0.0 0.00 0.00 0.00 56 1012.4
20260504042531 59 225 6.0 0.0 0.00 0.00 0.00 56 1012.5
20260504042031 59 197 6.0 0.0 0.00 0.00 0.00 56 1012.6
20260504041531 59 230 4.0 0.0 0.00 0.00 0.00 55 1012.4
20260504041032 60 207 4.0 0.0 0.00 0.00 0.00 54 1012.3
20260504040532 60 292 0.0 0.0 0.00 0.00 0.00 53 1012.1
20260504040031 61 292 0.0 0.0 0.00 0.00 0.00 51 1012.2
20260504035531 61 270 4.0 0.0 0.00 0.00 0.00 51 1012.3
20260504035031 61 267 4.0 0.0 0.00 0.00 0.00 50 1012.3
20260504034531 61 317 5.0 0.0 0.00 0.00 0.00 50 1012.1
20260504034032 61 317 5.0 0.0 0.00 0.00 0.00 51 1012.2
20260504033532 61 315 6.0 0.0 0.00 0.00 0.00 51 1012.1
20260504033031 61 352 6.0 0.0 0.00 0.00 0.00 51 1012.1
20260504032532 61 317 0.0 0.0 0.00 0.00 0.00 51 1012.1
20260504032031 61 330 5.0 0.0 0.00 0.00 0.00 51 1012.1
20260504031532 60 220 4.0 0.0 0.00 0.00 0.00 52 1012.5
20260504031031 60 205 4.0 0.0 0.00 0.00 0.00 53 1012.5
20260504030532 60 45 3.0 0.0 0.00 0.00 0.00 53 1012.3
20260504030031 60 172 6.0 0.0 0.00 0.00 0.00 54 1012.4
20260504025531 61 205 8.0 0.0 0.00 0.00 0.00 52 1012.6
20260504025031 61 315 3.0 0.0 0.00 0.00 0.00 51 1012.4
20260504024532 60 305 7.0 0.0 0.00 0.00 0.00 51 1012.4
20260504024031 60 335 5.0 0.0 0.00 0.00 0.00 53 1012.2
20260504023532 59 167 8.0 0.0 0.00 0.00 0.00 55 1012.4
20260504023032 59 217 6.0 0.0 0.00 0.00 0.00 56 1012.7
20260504022532 59 205 6.0 0.0 0.00 0.00 0.00 57 1012.5
20260504022031 59 192 7.0 0.0 0.00 0.00 0.00 56 1012.5
20260504021531 59 200 8.0 0.0 0.00 0.00 0.00 55 1012.6
20260504021032 59 222 6.0 0.0 0.00 0.00 0.00 56 1012.5
20260504020531 59 177 5.0 0.0 0.00 0.00 0.00 56 1012.4
20260504020031 59 192 5.0 0.0 0.00 0.00 0.00 56 1012.4
20260504015532 59 185 3.0 0.0 0.00 0.00 0.00 56 1012.5
20260504015032 60 232 6.0 0.0 0.00 0.00 0.00 54 1012.6